Powrót do katalogu

STARLINK-35742

AktywnyŁącznośćVLEO
NORAD 66276·PAYLOAD·🇺🇸 United States

Wystrzelony Oct 31, 2025 z Vandenberg Space Force Base

Loading…

Następne Przeloty (najbliższe 24 godziny)

TLE

ŚwieżeSource: CelesTrak SupGP

Epoka: Sep 15, 2026, 03:25 UTC

1 66276C 25247M   26258.14284722  .00033770  00000+0  99776-3 0  2588
2 66276  53.1587  28.8640 0001104  92.2519   2.9287 15.34373571    18

Śledź STARLINK-35742 w czasie rzeczywistym z AllMySat

Download on the App Store